Flag for U.S.A. Weather past 2 weeks in Bridgewater, Massachusetts, U.S.A.

Now
51 °F

Overcast.


Feels Like: 50 °F
Forecast: 41 / 64 °F
Wind: 5 mph from Northwest

Location: Taunton Municipal Airport

Current Time: Oct 24, 2014 at 11:03:42 PM

Latest Report: Oct 24, 2014 at 9:52 PM


Visibility: 10 mi

Pressure: 29.73 "Hg

Humidity: 71%

Dew point: 42 °F

Location of BridgewaterLocation

Historic Weather in Bridgewater — Graph

°F

Bridgewater temperature yesterday

Maximum temperature yesterday: 57 °F (at 1:01 PM)
Minimum temperature yesterday: 52 °F (at 10:52 PM)
Average temperature yesterday: 55 °F

Past Weeks' High & Low Weather Summary

 TemperatureHumidityPressure
High79 °F (Oct 15, 12:52 PM)97% (Oct 10, 12:52 AM)30.37 "Hg (Oct 10, 12:52 AM)
Low28 °F (Oct 20, 6:52 AM)37% (Oct 12, 2:52 PM)29.50 "Hg (Oct 18, 4:52 PM)
Average55 °F81%29.93 "Hg
* Reported Oct 9 9:52 PM — Oct 24 9:52 PM, Bridgewater, Weather by CustomWeather, © 2014

Note: Actual official high and low records may vary slightly from our data, if they occured in-between our weather recording intervals... More about our weather records

Advertising

Bridgewater weather history for previous 24 hours

 ConditionsComfort  
Time TempWeatherWind HumidityBarometerVisibility
9:52 PM
Oct 24
51 °FOvercast.5 mph71%29.73 "Hg10 mi
8:52 PM51 °FOvercast.5 mph71%29.73 "Hg10 mi
7:52 PM52 °FOvercast.6 mph75%29.73 "Hg10 mi
6:52 PM52 °FOvercast.3 mph75%29.72 "Hg10 mi
5:52 PM52 °FOvercast.6 mph75%29.71 "Hg10 mi
4:52 PM54 °FOvercast.5 mph72%29.70 "Hg10 mi
3:52 PM55 °FOvercast.7 mph72%29.69 "Hg10 mi
2:52 PM54 °FOvercast.7 mph74%29.68 "Hg10 mi
1:52 PM53 °FOvercast.8 mph77%29.68 "Hg10 mi
12:52 PM53 °FOvercast.7 mph77%29.68 "Hg10 mi
11:52 AM53 °FOvercast.8 mph80%29.70 "Hg10 mi
10:52 AM52 °FOvercast.8 mph86%29.70 "Hg10 mi
9:52 AM51 °FOvercast.7 mph89%29.70 "Hg10 mi
8:52 AM51 °FFog.7 mph92%29.69 "Hg4 mi
7:52 AM50 °FOvercast.6 mph93%29.68 "Hg10 mi
6:52 AM50 °FOvercast.7 mph93%29.67 "Hg10 mi
5:52 AM50 °FOvercast.8 mph93%29.66 "Hg10 mi
5:01 AM50 °FLight rain. Fog.9 mph93%29.65 "Hg5 mi
4:52 AM50 °FLight rain. Low clouds.6 mph93%29.65 "Hg7 mi
3:52 AM50 °FLow clouds.8 mph93%29.64 "Hg9 mi
2:52 AM50 °FFog.12 mph93%29.64 "Hg5 mi
1:52 AM51 °FLow clouds.9 mph89%29.63 "Hg8 mi
12:52 AM51 °FLight rain. Fog.9 mph92%29.63 "Hg4 mi
11:52 PM
Oct 23
52 °FLight rain. Fog.8 mph89%29.62 "Hg6 mi
Weather by CustomWeather, © 2014

See weather overviewHow to use our weather pages